THORAD AGENA D DEB, 4682

Orbit data source: Space-Track

THORAD AGENA D DEB, 4682 is space debris in SSO originally from a launch on Wed, 08 Apr 1970 UTC launched from the Air Force Western Test Range (AFWTR). Debris objects in space refer to the collection of defunct objects orbiting the Earth. Examples of debris include non-operational satellites, rocket bodies, and fragments generated from explosions, collisions, or faulty payload assembly.

Loading next visibility...
Identifier
4682, 1970-025BF
Orbit
SSO
Country
Flag of USUS
Related business
Manufacturer
Unknown
Mission
Spacecraft
Bus & Motor
Unknown
Mass
Unknown
Launch date (UTC)
1970-04-08 (56 years ago)
Launch vehicle
Unknown
Launch site
Air Force Western Test Range (AFWTR)
Object type
Payload
Rocket body
Debris
Shape & HBR
Unknown shape, 0.2 m
Radar Cross Section
Medium (>0.1 m² and <1 m²)

Expand to show TLE details & history
Last TLE update: 11 hours ago

TLE from 11 hours ago
0 THORAD AGENA D DEB
1  4682U 70025BF  26124.02043993  .00000230  00000-0  59886-3 0  9993
2  4682  99.7374 138.6002 0142303 260.6125 123.7719 13.24504421702247
Epoch: 2026-05-04T00:29Z
TLE epoch observation values (Epoch: 2026-05-04T00:29:26.009Z)
Latitude
25.35888°
Longitude
-95.31547°
Altitude
1,231.237 km
Speed
7.212 km/s
True Right ascension
08h 55m 50s
True Declination
25° 14' 04"
Sunlit
Object was in daylight at epoch
Visualization orbit readout
Latitude
Unknown
Longitude
Unknown
Altitude
Unknown
Speed
Unknown
Apparent Right ascension
Unknown
Apparent Declination
Unknown
Sunlit
N/A
Visualization observer readout
Local Sidereal Time
19:35:34
Azimuth
Unknown
Elevation
Unknown
Doppler factor
Unknown
Orbital elements
Apogee altitude
1,272.24 km
Perigee altitude
1,057.561 km
Semi-major axis
7,543.037 km
Eccentricity
0.01423
Inclination
99.7374°
RAAN
138.6002°
Arg. of periapsis
260.6125°
True anomaly
125.11401°
Mean anomaly
123.7719°
Eccentric anomaly
124.44429°
Mean motion
3.31302 °/min
Orbital period
108.66 mins
BSTAR
0.00059886
Loading maneuver chart data...
Computing Atmospheric mass density...
Loading historical data...
Loading historical data...
Loading historical data...
Loading historical data...
Loading historical data...
Loading historical data...
Loading historical data...

Documentation

Showing up to 5 results
|